[[{"header":{"parameterUnit":"m.s-1","parameterCategory":1,"la1":30.2992,"la2":30.254,"lo1":-89.0895,"lo2":-89.0443,"dy":0.0025,"dx":0.0025,"nx":19,"ny":19,"refTime":"2026-03-12T03:00:00:Z","depth":0,"parameterNumber":2,"parameterNumberName":"U-component_of_WINDS"},"data":[0,0,0,-3.7107,-3.7112,-3.7292,-3.7292,-3.7555,-3.7558,0,0,0,0,0,0,0,0,0,0,0,-3.7073,-3.7076,-3.7107,-3.7112,-3.7292,-3.7292,-3.7555,-3.7558,0,0,0,0,0,0,0,0,0,0,0,-3.7072,-3.7075,-3.7078,-3.7113,-3.7292,-3.7292,-3.7554,-3.7407,0,0,0,0,0,0,0,0,0,0,-3.7227,-3.7214,-3.7074,-3.7078,-3.7114,-3.7291,-3.7292,-3.7399,-3.7416,-3.7488,0,-3.7556,0,-3.7561,-3.7578,-3.7579,0,0,0,-3.7098,-3.72,-3.7231,-3.7079,-3.7116,-3.7291,-3.7207,-3.7408,-3.7427,-3.751,-3.7559,-3.7568,-3.7565,-3.7579,-3.7581,-3.8038,-3.804,0,0,-3.7088,-3.7117,-3.7218,-3.7244,-3.7218,-3.7201,-3.7212,-3.7419,-3.7475,-3.756,-3.7574,-3.757,-3.7581,-3.7584,-3.8035,-3.8039,0,0,0,-3.7069,-3.711,-3.7135,-3.7234,-3.7264,-3.7207,-3.722,-3.7466,-3.7471,-3.7576,-3.7573,-3.7583,-3.7587,-3.8032,-3.8036,-3.8203,0,0,0,-3.7062,-3.7099,-3.7132,-3.7151,-3.7261,-3.7367,-3.7262,-3.7457,-3.748,-3.7572,-3.7583,-3.759,-3.8029,-3.8034,-3.8191,-3.8278,0,0,0,-3.7055,-3.7098,-3.713,-3.7152,-3.723,-3.7363,-3.738,-3.7461,-3.7479,-3.7579,-3.759,-3.8027,-3.8033,-3.8181,-3.8261,-3.8407,0,0,0,-3.7056,-3.7276,-3.7134,-3.7378,-3.7229,-3.7464,-3.7378,-3.7552,-3.7658,-3.7585,-3.8029,-3.8036,-3.8178,-3.8251,-3.8396,-3.8536,-3.8596,0,0,-3.735,-3.7313,-3.7454,-3.7332,-3.7599,-3.7434,-3.7726,-3.7797,-3.778,-3.7953,-3.7964,-3.8195,-3.826,-3.8405,-3.8921,-3.8969,0,0,0,-3.7557,-3.766,-3.7724,-3.7826,-3.7883,-3.794,-3.7962,-3.7988,-3.8133,-3.7875,-3.8285,-3.8323,-3.8407,-3.8472,-3.8513,-3.8584,-3.8067,-3.8066,-3.8065,-3.8017,-3.7983,-3.8215,-3.8202,-3.8302,-3.8321,-3.8399,-3.8437,-3.8374,-3.8472,-3.8524,-3.8841,-3.8919,-3.8949,-3.9023,-3.8593,-3.8593,-3.8594,-3.8594,-3.8446,-3.8586,-3.8496,-3.8688,-3.8651,-3.8813,-3.884,-3.879,-3.8935,-3.8799,-3.8871,-3.8728,-3.9003,-3.9066,-3.8607,-3.8605,-3.8603,-3.8602,-3.8601,-3.8745,-3.8806,-3.8832,-3.8974,-3.9088,-3.9066,-3.921,-3.917,-3.9134,-3.9206,-3.9257,-3.9254,-3.9247,-3.9232,-3.9233,-3.9234,-3.9235,-3.9236,-3.9237,-3.9046,-3.907,-3.9196,-3.9274,-3.9333,-3.9406,-3.9426,-3.9484,-3.9537,-3.9497,-3.9497,-3.9426,-3.9036,-3.8939,-3.9254,-3.9251,-3.9249,-3.9247,-3.9246,-3.9498,-3.9389,-3.9583,-3.9643,-3.9731,-3.9846,-3.9792,-3.9912,-3.9953,-4.0026,-3.9938,-3.9655,-3.9615,-3.9582,-3.9502,-3.9943,-3.9943,-3.9943,-3.9943,-3.9752,-3.9726,-3.9915,-4.0013,-4.0103,-4.0074,-4.0295,-4.0312,-4.0313,-4.0336,-4.0266,-4.0156,-4.0124,-4.0103,-4.0059,-3.9984,-4.0538,-4.0538,-4.0539,-4.0029,-4.001,-4.0206,-4.0204,-4.0269,-4.0326,-4.0533,-4.0649,-4.0626,-4.0562,-4.0354,-4.0329,-4.0151,-4.0094,-4.0029,-3.9961,-3.9823,0,0]},{"header":{"parameterUnit":"m.s-1","parameterCategory":1,"la1":30.2992,"la2":30.254,"lo1":-89.0895,"lo2":-89.0443,"dy":0.0025,"dx":0.0025,"nx":19,"ny":19,"refTime":"2026-03-12T03:00:00:Z","depth":0,"parameterNumber":3,"parameterNumberName":"V-component_of_WINDS"},"data":[0,0,0,-5.5096,-5.51,-5.5261,-5.5262,-5.5484,-5.5487,0,0,0,0,0,0,0,0,0,0,0,-5.506,-5.5062,-5.5096,-5.51,-5.5261,-5.5262,-5.5484,-5.5487,0,0,0,0,0,0,0,0,0,0,0,-5.506,-5.5062,-5.5064,-5.5101,-5.5261,-5.5262,-5.5483,-5.5355,0,0,0,0,0,0,0,0,0,0,-5.5195,-5.5176,-5.5061,-5.5064,-5.5102,-5.5261,-5.5262,-5.5349,-5.5363,-5.5419,0,-5.5474,0,-5.5484,-5.5503,-5.5504,0,0,0,-5.509,-5.5164,-5.5196,-5.5065,-5.5103,-5.5261,-5.5186,-5.5357,-5.5373,-5.5438,-5.5477,-5.5485,-5.5488,-5.5504,-5.5505,-5.5864,-5.5866,0,0,-5.5081,-5.5096,-5.5185,-5.5208,-5.5186,-5.5181,-5.5191,-5.5366,-5.5409,-5.5478,-5.549,-5.5491,-5.5506,-5.5508,-5.5862,-5.5864,0,0,0,-5.5062,-5.509,-5.5118,-5.5199,-5.5227,-5.5186,-5.5197,-5.5401,-5.5409,-5.5492,-5.5494,-5.5507,-5.551,-5.5859,-5.5862,-5.5983,0,0,0,-5.5056,-5.5079,-5.5114,-5.5125,-5.5224,-5.5317,-5.5228,-5.5397,-5.5416,-5.5493,-5.5507,-5.5513,-5.5857,-5.5861,-5.5974,-5.6037,0,0,0,-5.5046,-5.5077,-5.5105,-5.5125,-5.5195,-5.5313,-5.5331,-5.54,-5.5418,-5.5504,-5.5513,-5.5855,-5.586,-5.5967,-5.6025,-5.6135,0,0,0,-5.5038,-5.521,-5.5107,-5.53,-5.5194,-5.5387,-5.533,-5.5472,-5.556,-5.5509,-5.5857,-5.5862,-5.5964,-5.6017,-5.6127,-5.6231,-5.6275,0,0,-5.5263,-5.5237,-5.5349,-5.5262,-5.5477,-5.5361,-5.5593,-5.5659,-5.5652,-5.5793,-5.5801,-5.5977,-5.6024,-5.6133,-5.6521,-5.6556,0,0,0,-5.5425,-5.5506,-5.5559,-5.5645,-5.57,-5.5752,-5.5781,-5.5804,-5.5923,-5.5729,-5.6046,-5.6074,-5.6137,-5.6186,-5.6216,-5.6269,-5.5885,-5.5885,-5.5884,-5.5764,-5.5748,-5.5931,-5.5934,-5.6017,-5.6045,-5.611,-5.6146,-5.6105,-5.618,-5.6222,-5.6459,-5.6517,-5.6539,-5.6595,-5.6275,-5.6275,-5.6276,-5.6276,-5.6092,-5.6203,-5.6143,-5.63,-5.6281,-5.6411,-5.6443,-5.6409,-5.6526,-5.6426,-5.6482,-5.6374,-5.6579,-5.6627,-5.6285,-5.6283,-5.6282,-5.6282,-5.6281,-5.6312,-5.6362,-5.6389,-5.6509,-5.6603,-5.6599,-5.6714,-5.6692,-5.6671,-5.6726,-5.6767,-5.6765,-5.6759,-5.6747,-5.6748,-5.6748,-5.6749,-5.675,-5.675,-5.653,-5.6557,-5.6658,-5.673,-5.678,-5.6844,-5.6872,-5.6921,-5.6968,-5.6943,-5.6943,-5.6893,-5.6603,-5.653,-5.6763,-5.6761,-5.6759,-5.6758,-5.6757,-5.6868,-5.6788,-5.6944,-5.6996,-5.7077,-5.717,-5.714,-5.7241,-5.7277,-5.7334,-5.7272,-5.7061,-5.7033,-5.7009,-5.6949,-5.7276,-5.7276,-5.7276,-5.7276,-5.7054,-5.7038,-5.7192,-5.7274,-5.7352,-5.734,-5.7514,-5.7537,-5.7547,-5.7568,-5.7517,-5.7435,-5.7411,-5.7397,-5.7364,-5.7308,-5.7719,-5.772,-5.772,-5.7261,-5.7251,-5.7405,-5.7415,-5.7476,-5.7529,-5.7691,-5.7786,-5.7781,-5.7737,-5.7583,-5.7565,-5.7432,-5.739,-5.7344,-5.7294,-5.7189,0,0]}]]